This demonstration page uses our WeatherBlox Daily Observations layout. Learn more.

Left ArrowRight Arrow

38.88101, -77.10428

Hourly Observations for September 30, 2016

Temp ( °F °C ) Dew Point ( °F °C ) Humidity (%) Winds ( mph kmh ) Pressure ( in mb ) Visibility ( mi km ) Precip ( " mm )
12:52 am 00:52 Cloudy with Light Rain 64 18 64 18 100 100 NE 17 28 30.15 1021 10 16 N/A
1:52 am 01:52 Cloudy with Rain 64 17.8 63 17.2 96 96 NE 13 20 30.14 1021 7 11 0.01 0.25
2:05 am 02:05 Cloudy with Heavy Rain 64 17.8 63 17.2 96 96 NE 13 20 30.15 1021 3 4 0.05 1.27
2:15 am 02:15 Cloudy with Light Rain 64 17.8 63 17.2 96 96 NE 14 22 30.15 1021 9 14 0.08 2.03
2:52 am 02:52 Cloudy 64 17.8 63 17.2 96 96 NE 16 26 30.12 1020 10 16 0.08 2.03
3:52 am 03:52 Cloudy 64 17.8 63 17.2 96 96 NE 17 28 30.12 1020 10 16 N/A
4:17 am 04:17 Cloudy 64 17.8 63 17.2 96 96 NE 21 33 30.12 1020 10 16 N/A
4:52 am 04:52 Cloudy 64 17.8 62 16.7 93 93 NE 16 26 30.12 1020 10 16 N/A
5:10 am 05:10 Cloudy 63 17 63 17 100 100 NE 20 31 30.12 1020 10 16 N/A
5:52 am 05:52 Cloudy 62 16.7 61 16.1 96 96 NE 15 24 30.14 1021 10 16 N/A
6:07 am 06:07 Cloudy 62 16.7 61 16.1 96 96 NE 16 26 30.15 1021 10 16 N/A
6:52 am 06:52 Cloudy with Drizzle 62 16.7 61 16.1 96 96 NNE 17 28 30.14 1021 10 16 N/A
7:52 am 07:52 Cloudy with Drizzle 62 16.7 61 16.1 96 96 NE 15 24 30.16 1021 10 16 N/A
8:52 am 08:52 Cloudy with Mist and Fog 62 16.7 61 16.1 96 96 NNE 16 26 30.16 1021 5 8 N/A
9:01 am 09:01 Cloudy with Mist and Fog 62 16.7 61 16.1 96 96 NE 15 24 30.15 1021 6 10 N/A
9:38 am 09:38 Cloudy 63 17 61 16 94 94 NE 15 24 30.18 1022 8 13 N/A
9:52 am 09:52 Cloudy 63 17.2 61 16.1 93 93 NE 14 22 30.17 1022 8 13 N/A
10:52 am 10:52 Cloudy 64 17.8 62 16.7 93 93 NE 16 26 30.16 1022 10 16 N/A
11:52 am 11:52 Cloudy with Drizzle 64 17.8 63 17.2 96 96 NE 14 22 30.16 1021 7 11 N/A
12:52 pm 12:52 Cloudy 65 18.3 63 17.2 93 93 NE 16 26 30.15 1021 10 16 N/A
1:22 pm 13:22 Cloudy 64 18 63 17 94 94 NE 16 26 30.15 1021 10 16 N/A
1:52 pm 13:52 Cloudy 65 18.3 63 17.2 93 93 NE 17 28 30.15 1021 10 16 N/A
2:30 pm 14:30 Cloudy 64 18 63 17 94 94 NNE 12 19 30.15 1021 9 14 N/A
2:52 pm 14:52 Cloudy 65 18.3 63 17.2 93 93 NE 16 26 30.13 1020 9 14 N/A
3:05 pm 15:05 Cloudy with Drizzle 65 18.3 63 17.2 93 93 NE 15 24 30.12 1020 6 10 N/A
3:34 pm 15:34 Cloudy with Mist and Fog 64 18 64 18 100 100 NE 15 24 30.12 1020 4 6 N/A
3:52 pm 15:52 Cloudy with Drizzle 65 18.3 64 17.8 97 97 NE 16 26 30.11 1020 3 5 N/A
4:01 pm 16:01 Cloudy with Drizzle 65 18.3 64 17.8 97 97 NE 14 22 30.12 1020 3 5 N/A
4:52 pm 16:52 Cloudy with Drizzle 65 18.3 64 17.8 97 97 NNE 12 19 30.12 1020 3 5 N/A
5:24 pm 17:24 Cloudy with Drizzle 64 18 64 18 100 100 NE 12 19 30.12 1020 3 4 N/A
5:52 pm 17:52 Cloudy with Drizzle 65 18.3 65 18.3 100 100 NE 12 19 30.11 1020 4 6 N/A
6:10 pm 18:10 Cloudy with Nearby Thunderstorms 64 18 64 18 100 100 NE 10 17 30.12 1020 4 6 N/A
6:21 pm 18:21 Cloudy with Drizzle 65 18.3 65 18.3 100 100 NE 10 17 30.12 1020 4 6 N/A
6:47 pm 18:47 Cloudy with Drizzle 66 19 64 18 94 94 ENE 14 22 30.12 1020 6 10 N/A
6:52 pm 18:52 Cloudy with Drizzle 66 18.9 65 18.3 96 96 NE 12 19 30.13 1020 6 10 0.01 0.25
7:46 pm 19:46 Cloudy with Drizzle 64 18 64 18 100 100 NE 14 22 30.12 1020 6 10 N/A
7:52 pm 19:52 Cloudy with Drizzle 66 18.9 65 18.3 96 96 NE 14 22 30.12 1020 5 8 0.02 0.51
8:52 pm 20:52 Cloudy with Drizzle 65 18.3 65 18.3 100 100 ENE 16 26 30.11 1020 5 8 N/A
9:19 pm 21:19 Cloudy with Drizzle 65 18.3 65 18.3 100 100 NE 13 20 30.12 1020 6 10 N/A
9:31 pm 21:31 Cloudy with Drizzle 65 18.3 64 17.8 97 97 ENE 16 26 30.12 1020 6 10 N/A
9:52 pm 21:52 Cloudy with Mist and Fog 65 18.3 64 17.8 97 97 NE 14 22 30.13 1020 6 10 N/A
10:01 pm 22:01 Cloudy with Mist and Fog 65 18.3 64 17.8 97 97 NE 14 22 30.12 1020 6 10 N/A
10:52 pm 22:52 Cloudy with Drizzle 65 18.3 64 17.8 97 97 NE 15 24 30.12 1020 7 11 N/A
11:52 pm 23:52 Cloudy 65 18.3 64 17.8 97 97 NE 14 22 30.12 1020 10 16 N/A

Powered by AerisWeather